User: anonymous   Login
Location: Unspecified
(0.0000°N, 0.0000°E)
Time: 20:51:56
(UTC+00:00)
Language:

Oscar 11 - Orbit

View from above orbital plane
View from above orbital plane
View from above satellite
View from above satellite

Ground track
Ground track

The orbit data is extracted from the following two-line orbital elements,

1 14781U 84021B   20268.59650270  .00000093  00000-0  17510-4 0  9998
2 14781  97.5912 275.6406 0007247 228.9192 131.1397 14.83193146967523
Epoch (UTC): 24 September 2020 14:18:57
Eccentricity: 0.0007247
inclination: 97.5912°
perigee height: 614 km
apogee height: 624 km
right ascension of ascending node: 275.6406°
argument of perigee: 228.9192°
revolutions per day: 14.83193146
mean anomaly at epoch: 131.1397°
orbit number at epoch: 96752

The dashed part of the orbit path shows where the satellite is in the earth's shadow,  

DLR